Location: Parc National du Mont-Orford
(45.3122°N, 72.2403°W)
Time: 06:03:42
(UTC-04:00)

OTV 5 (USA 277) - Visible Passes

Search period start: 19 April 2018 00:00
Search period end: 29 April 2018 00:00
Orbit: 350 x 361 km, 54.5° (Epoch: 17 April)

Date Brightness Start Highest point End Pass type
(mag) Time Alt. Az. Time Alt. Az. Time Alt. Az.
19 Apr ? 20:37:16 10° SW 20:40:14 71° SE 20:43:14 10° ENE visible
19 Apr ? 22:13:15 10° WNW 22:15:39 22° NNW 22:16:28 19° N visible
20 Apr ? 21:05:02 10° W 21:07:53 39° NNW 21:10:43 10° NE visible
20 Apr ? 22:41:46 10° NW 22:43:39 15° N 22:43:43 15° N visible
21 Apr ? 21:33:21 10° WNW 21:35:43 21° NNW 21:38:04 10° NE visible
21 Apr ? 23:09:58 10° NNW 23:10:39 12° NNW 23:10:39 12° NNW visible
22 Apr ? 20:25:06 10° W 20:27:54 36° NNW 20:30:43 10° NE visible
22 Apr ? 22:01:52 10° NW 22:03:44 15° N 22:05:34 10° NNE visible
23 Apr ? 20:53:28 10° WNW 20:55:47 20° NNW 20:58:05 10° NNE visible
23 Apr ? 22:30:01 10° NNW 22:31:47 14° N 22:32:19 14° NNE visible
24 Apr ? 21:21:58 10° NW 21:23:47 15° N 21:25:36 10° NNE visible
24 Apr ? 22:57:37 10° NNW 22:58:50 16° N 22:58:50 16° N visible
25 Apr ? 20:13:35 10° WNW 20:15:50 19° NNW 20:18:04 10° NNE visible
25 Apr ? 21:50:03 10° NNW 21:51:51 15° N 21:53:39 10° NE visible
25 Apr ? 23:24:59 10° NW 23:25:18 12° NW 23:25:18 12° NW visible
26 Apr ? 20:42:04 10° NW 20:43:51 15° N 20:45:39 10° NNE visible
26 Apr ? 22:17:37 10° NNW 22:19:53 19° NNE 22:20:06 19° NNE visible
27 Apr ? 21:10:05 10° NNW 21:11:55 15° N 21:13:45 10° NE visible
27 Apr ? 22:44:58 10° NW 22:46:32 23° NNW 22:46:32 23° NNW visible
28 Apr ? 21:37:36 10° NW 21:39:56 20° NNE 21:41:19 15° NE visible
28 Apr ? 23:12:26 10° NW 23:12:58 14° NW 23:12:58 14° NW visible
